Auburn, CA

9:13 PM PDT on April 29, 2017 (GMT -0700)
Auburn Municipal

Weather History for KAUN - August, 2013

Change the Weather History Date:

Saturday, August 17, 2013

  Actual Average Record
Temperature  
Mean Temperature 82 °F -  
Max Temperature 93 °F 90 °F 103 °F (1950)
Min Temperature 71 °F 60 °F 50 °F (1972)
Cooling Degree Days 17    
Growing Degree Days 32 (Base 50)    
Moisture  
Dew Point 49 °F    
Average Humidity 34    
Maximum Humidity 53    
Minimum Humidity 15    
Precipitation  
Precipitation 0.00 in - - ()
Sea Level Pressure  
Sea Level Pressure 29.94 in    
Wind  
Wind Speed 7 mph (SE)    
Max Wind Speed 10 mph    
Max Gust Speed -    
Visibility 8 miles    
Events      
Averages and records for this station are not official NWS values.
T = Trace of Precipitation, MM = Missing Value Source: NWS Daily Summary

Daily Weather History Graph

Daily Weather History Graph

Search for Another Location

Airport or City:

Trip Planner

Search our weather history database for the weather conditions in past years. The results will help you decide how hot, cold, wet, or windy it might be!

Date:

Astronomy

Aug. 17, 2013 Rise Set
Actual Time 6:19 AM PDT 7:55 PM PDT
Civil Twilight 5:51 AM PDT 8:24 PM PDT
Nautical Twilight 5:17 AM PDT 8:58 PM PDT
Astronomical Twilight 4:41 AM PDT 9:34 PM PDT
Moon 5:15 PM PDT (8/17) 2:29 AM PDT (8/17)
Length of Visible Light 14h 32m
Length of Day
13h 36m
Waxing Gibbous, 85% of the Moon is Illuminated
Aug 17
Waxing Gibbous
Aug 20
Full
Aug 28
Last Quarter
Sep 5
New
Sep 12
First Quarter

Hourly Weather History & Observations

Time (PDT) Temp. Heat Index Dew Point Humidity Pressure Visibility Wind Dir Wind Speed Gust Speed Precip Events Conditions
12:15 AM 73.4 °F - 51.8 °F 47% 29.98 in 10.0 mi East 4.6 mph - N/A   Clear
12:35 AM 73.4 °F - 51.8 °F 47% 29.99 in 10.0 mi ESE 5.8 mph - N/A   Clear
12:55 AM 73.4 °F - 48.2 °F 41% 29.98 in 10.0 mi East 5.8 mph - N/A   Clear
1:15 AM 73.4 °F - 48.2 °F 41% 29.98 in 10.0 mi East 5.8 mph - N/A   Clear
1:35 AM 73.4 °F - 48.2 °F 41% 29.98 in 10.0 mi East 8.1 mph - N/A   Clear
1:55 AM 73.4 °F - 48.2 °F 41% 29.97 in 10.0 mi East 8.1 mph - N/A   Clear
2:15 AM 73.4 °F - 48.2 °F 41% 29.97 in 10.0 mi East 9.2 mph - N/A   Clear
2:35 AM 73.4 °F - 48.2 °F 41% 29.97 in 10.0 mi East 8.1 mph - N/A   Clear
2:55 AM 71.6 °F - 46.4 °F 41% 29.97 in 7.0 mi East 8.1 mph - N/A   Clear
3:15 AM 71.6 °F - 46.4 °F 41% 29.96 in 5.0 mi East 8.1 mph - N/A   Clear
3:35 AM 71.6 °F - 46.4 °F 41% 29.96 in 5.0 mi East 8.1 mph - N/A   Clear
3:55 AM 71.6 °F - 46.4 °F 41% 29.96 in 4.0 mi East 9.2 mph - N/A   Clear
4:15 AM 71.6 °F - 46.4 °F 41% 29.96 in 3.0 mi East 6.9 mph - N/A   Clear
4:35 AM 71.6 °F - 46.4 °F 41% 29.96 in 4.0 mi East 8.1 mph - N/A   Clear
4:55 AM 71.6 °F - 46.4 °F 41% 29.96 in 5.0 mi East 10.4 mph - N/A   Clear
5:15 AM 71.6 °F - 46.4 °F 41% 29.96 in 5.0 mi East 10.4 mph - N/A   Clear
5:35 AM 71.6 °F - 44.6 °F 38% 29.97 in 5.0 mi East 8.1 mph - N/A   Clear
5:55 AM 71.6 °F - 44.6 °F 38% 29.96 in 4.0 mi East 9.2 mph - N/A   Clear
6:15 AM 71.6 °F - 44.6 °F 38% 29.97 in 4.0 mi East 10.4 mph - N/A   Clear
6:35 AM 71.6 °F - 42.8 °F 35% 29.97 in 3.0 mi East 9.2 mph - N/A   Clear
6:55 AM 71.6 °F - 42.8 °F 35% 29.97 in 2.5 mi East 9.2 mph - N/A   Clear
7:15 AM 71.6 °F - 42.8 °F 35% 29.97 in 2.0 mi East 9.2 mph - N/A   Clear
7:35 AM 73.4 °F - 42.8 °F 33% 29.98 in 2.0 mi East 8.1 mph - N/A   Clear
7:55 AM 75.2 °F - 42.8 °F 31% 29.98 in 2.0 mi East 8.1 mph - N/A   Clear
8:15 AM 75.2 °F - 42.8 °F 31% 29.99 in 2.5 mi East 6.9 mph - N/A   Clear
8:35 AM 77.0 °F - 42.8 °F 29% 29.98 in 2.5 mi East 8.1 mph - N/A   Clear
8:55 AM 80.6 °F - 42.8 °F 26% 29.98 in 2.5 mi East 10.4 mph - N/A   Clear
9:15 AM 82.4 °F - 44.6 °F 26% 29.99 in 2.5 mi ESE 6.9 mph - N/A   Clear
9:35 AM 84.2 °F - 44.6 °F 25% 29.99 in 3.0 mi ESE 4.6 mph - N/A   Clear
9:55 AM 87.8 °F - 44.6 °F 22% 29.98 in 4.0 mi SE 3.5 mph - N/A   Clear
10:15 AM 87.8 °F - 44.6 °F 22% 29.99 in 6.0 mi Calm Calm - N/A   Clear
10:35 AM 87.8 °F - 51.8 °F 29% 29.99 in 4.0 mi WSW 5.8 mph - N/A   Clear
10:55 AM 84.2 °F - 51.8 °F 33% 29.99 in 4.0 mi West 8.1 mph - N/A   Clear
11:15 AM 82.4 °F - 51.8 °F 35% 30.00 in 5.0 mi WSW 8.1 mph - N/A   Clear
11:35 AM 84.2 °F - 51.8 °F 33% 29.99 in 6.0 mi NW 5.8 mph - N/A   Clear
11:55 AM 87.8 °F - 50.0 °F 27% 29.98 in 5.0 mi WNW 5.8 mph - N/A   Clear
12:15 PM 89.6 °F - 50.0 °F 26% 29.97 in 7.0 mi West 8.1 mph - N/A   Clear
12:35 PM 91.4 °F - 48.2 °F 23% 29.97 in 7.0 mi West 8.1 mph - N/A   Clear
12:55 PM 89.6 °F - 48.2 °F 24% 29.97 in 8.0 mi West 8.1 mph - N/A   Clear
1:15 PM 89.6 °F - 48.2 °F 24% 29.97 in 9.0 mi West 9.2 mph - N/A   Clear
1:35 PM 91.4 °F - 48.2 °F 23% 29.96 in 8.0 mi West 8.1 mph - N/A   Clear
1:55 PM 91.4 °F - 48.2 °F 23% 29.96 in 10.0 mi West 6.9 mph - N/A   Clear
2:15 PM 91.4 °F - 46.4 °F 21% 29.95 in 9.0 mi West 5.8 mph - N/A   Clear
2:35 PM 91.4 °F - 46.4 °F 21% 29.95 in 10.0 mi West 8.1 mph - N/A   Clear
2:55 PM 91.4 °F - 48.2 °F 23% 29.94 in 9.0 mi WNW 6.9 mph - N/A   Clear
3:15 PM 93.2 °F - 48.2 °F 21% 29.93 in 10.0 mi West 9.2 mph - N/A   Clear
3:35 PM 93.2 °F - 42.8 °F 17% 29.93 in 10.0 mi WSW 6.9 mph - N/A   Clear
3:55 PM 93.2 °F - 48.2 °F 21% 29.92 in 10.0 mi West 8.1 mph - N/A   Clear
4:15 PM 93.2 °F - 46.4 °F 20% 29.91 in 10.0 mi West 6.9 mph - N/A   Clear
4:35 PM 93.2 °F - 42.8 °F 17% 29.90 in 10.0 mi WNW 6.9 mph - N/A   Clear
4:55 PM 93.2 °F - 39.2 °F 15% 29.90 in 10.0 mi WNW 4.6 mph - N/A   Clear
5:15 PM 93.2 °F - 48.2 °F 21% 29.89 in 10.0 mi West 8.1 mph - N/A   Clear
5:35 PM 91.4 °F - 50.0 °F 24% 29.89 in 10.0 mi WNW 4.6 mph - N/A   Clear
5:55 PM 91.4 °F - 50.0 °F 24% 29.89 in 10.0 mi WSW 10.4 mph - N/A   Clear
6:15 PM 91.4 °F - 48.2 °F 23% 29.89 in 10.0 mi SSW 6.9 mph - N/A   Clear
6:35 PM 89.6 °F - 50.0 °F 26% 29.88 in 10.0 mi WSW 4.6 mph - N/A   Clear
6:55 PM 89.6 °F - 51.8 °F 27% 29.87 in 10.0 mi West 4.6 mph - N/A   Clear
7:15 PM 89.6 °F - 51.8 °F 27% 29.88 in 10.0 mi WSW 6.9 mph - N/A   Clear
7:35 PM 87.8 °F - 51.8 °F 29% 29.88 in 10.0 mi SW 4.6 mph - N/A   Clear
7:55 PM 84.2 °F - 51.8 °F 33% 29.87 in 10.0 mi Calm Calm - N/A   Clear
8:15 PM 80.6 °F - 51.8 °F 37% 29.88 in 10.0 mi Calm Calm - N/A   Clear
8:35 PM 80.6 °F 80.5 °F 55.4 °F 42% 29.88 in 10.0 mi West 3.5 mph - N/A   Clear
8:55 PM 78.8 °F - 57.2 °F 47% 29.88 in 10.0 mi West 3.5 mph - N/A   Clear
9:15 PM 73.4 °F - 55.4 °F 53% 29.90 in 10.0 mi Calm Calm - N/A   Clear
9:35 PM 78.8 °F - 57.2 °F 47% 29.90 in 10.0 mi SSE 5.8 mph - N/A   Clear
9:55 PM 77.0 °F - 57.2 °F 50% 29.90 in 10.0 mi ESE 3.5 mph - N/A   Clear
10:15 PM 75.2 °F - 57.2 °F 53% 29.90 in 10.0 mi ENE 3.5 mph - N/A   Clear
10:35 PM 75.2 °F - 57.2 °F 53% 29.90 in 10.0 mi Calm Calm - N/A   Clear
10:55 PM 73.4 °F - 55.4 °F 53% 29.90 in 10.0 mi Calm Calm - N/A   Clear
11:15 PM 75.2 °F - 57.2 °F 53% 29.90 in 10.0 mi SE 4.6 mph - N/A   Clear
11:35 PM 75.2 °F - 57.2 °F 53% 29.90 in 10.0 mi East 3.5 mph - N/A   Clear
11:55 PM 73.4 °F - 55.4 °F 53% 29.90 in 10.0 mi East 6.9 mph - N/A   Clear